Change the Weather History Date:

Sunday, June 3, 2012

  Actual Average Record
Temperature  
Mean Temperature 72 °F -  
Max Temperature 87 °F 71 °F 97 °F (2006)
Min Temperature 59 °F 49 °F 33 °F (1998)
Cooling Degree Days 8    
Growing Degree Days 22 (Base 50)    
Moisture  
Dew Point 55 °F    
Average Humidity 55    
Maximum Humidity 72    
Minimum Humidity 37    
Precipitation  
Precipitation 0.02 in - - ()
Sea Level Pressure  
Sea Level Pressure 29.73 in    
Wind  
Wind Speed 11 mph (NW)    
Max Wind Speed 17 mph    
Max Gust Speed 21 mph    
Averages and records for this station are not official NWS values.
T = Trace of Precipitation, MM = Missing Value Source: NWS Daily Summary

Daily Weather History Graph

Daily Weather History Graph

Search for Another Location

Airport or City:

Trip Planner

Search our weather history database for the weather conditions in past years. The results will help you decide how hot, cold, wet, or windy it might be!

Date:

Astronomy

Jun. 03, 2012 Rise Set
Actual Time 5:57 AM CDT 9:14 PM CDT
Civil Twilight 5:21 AM CDT 9:49 PM CDT
Nautical Twilight 4:35 AM CDT 10:35 PM CDT
Astronomical Twilight 3:39 AM CDT 11:32 PM CDT
Moon 8:41 PM CDT (6/3) 5:08 AM CDT (6/3)
Length of Visible Light 16h 28m
Length of Day
15h 17m
Waxing Gibbous, 99% of the Moon is Illuminated
Jun 3
Waxing Gibbous
Jun 4
Full
Jun 11
Last Quarter
Jun 19
New
Jun 26
First Quarter

Hourly Weather History & Observations

Time (CDT) Temp. Heat Index Dew Point Humidity Pressure Visibility Wind Dir Wind Speed Gust Speed Precip Events Conditions
12:52 AM 62.1 °F - 50.0 °F 65% 29.72 in - SE 13.8 mph - N/A   Unknown
1:52 AM 63.0 °F - 48.9 °F 60% 29.67 in - ESE 17.3 mph - N/A   Unknown
2:36 AM 68.0 °F - 46.4 °F 46% 29.79 in - Variable 3.5 mph - N/A   Unknown
2:52 AM 64.0 °F - 50.0 °F 60% 29.77 in - WSW 3.5 mph - 0.01 in   Unknown
3:52 AM 61.0 °F - 52.0 °F 72% 29.65 in - ESE 16.1 mph 20.7 mph 0.01 in   Unknown
4:52 AM 61.0 °F - 48.9 °F 64% 29.67 in - SE 11.5 mph - N/A   Unknown
5:52 AM 59.0 °F - 48.9 °F 69% 29.66 in - SE 12.7 mph - N/A   Unknown
6:52 AM 59.0 °F - 48.9 °F 69% 29.67 in - SE 10.4 mph - N/A   Unknown
7:52 AM 62.1 °F - 51.1 °F 67% 29.68 in - SE 9.2 mph - N/A   Unknown
8:52 AM 68.0 °F - 54.0 °F 61% 29.68 in - SW 4.6 mph - N/A   Unknown
9:52 AM 72.0 °F - 55.0 °F 55% 29.68 in - West 9.2 mph - N/A   Unknown
10:52 AM 75.9 °F - 57.9 °F 54% 29.69 in - NW 9.2 mph - N/A   Unknown
11:52 AM 80.1 °F 80.7 °F 59.0 °F 48% 29.70 in - WNW 12.7 mph - N/A   Unknown
12:52 PM 80.1 °F 80.9 °F 60.1 °F 50% 29.72 in - NW 11.5 mph - N/A   Unknown
1:52 PM 82.0 °F 83.0 °F 62.1 °F 51% 29.72 in - North 10.4 mph - N/A   Unknown
2:52 PM 82.9 °F 83.2 °F 60.1 °F 46% 29.73 in - NW 12.7 mph - N/A   Unknown
3:52 PM 84.9 °F 84.4 °F 59.0 °F 41% 29.74 in - NW 9.2 mph - N/A   Unknown
4:52 PM 86.0 °F 84.9 °F 57.0 °F 37% 29.74 in - NNW 11.5 mph 20.7 mph N/A   Unknown
5:52 PM 86.0 °F 84.9 °F 57.0 °F 37% 29.75 in - NNW 13.8 mph - N/A   Unknown
6:52 PM 84.0 °F 82.9 °F 55.0 °F 37% 29.76 in - NNW 11.5 mph 20.7 mph N/A   Unknown
7:52 PM 82.0 °F 81.7 °F 57.0 °F 42% 29.79 in - NNW 9.2 mph - N/A   Unknown
8:52 PM 75.9 °F - 59.0 °F 56% 29.81 in - NW 4.6 mph - N/A   Unknown
9:52 PM 72.0 °F - 59.0 °F 64% 29.84 in - NW 3.5 mph - N/A   Unknown
10:52 PM 69.1 °F - 57.9 °F 68% 29.86 in - NW 5.8 mph - N/A   Unknown
11:52 PM 68.0 °F - 57.0 °F 68% 29.87 in - NNW 3.5 mph - N/A   Unknown